RPA1308 KAVL-KATL

Flight info

Callsign RPA1308
Flight time N/A
Altitude 24000
Route MHONY WINNG OZZZI2
Aircraft E75L/M-SDE3GILORVW/S

Departure

Time 2026-04-20 23:02
Airport Asheville Regional Airport (KAVL)

Arrival

Time N/A
Airport Hartsfield Jackson Atlanta International Airport (KATL)
Time Latitude Longitude Altitude Speed Heading
2026-04-20 22:20 35.43430 -82.53846 2143 ft 0 kts 68°
2026-04-20 22:56 35.43426 -82.53858 2143 ft 2 kts 68°
2026-04-20 22:56 35.43422 -82.53876 2142 ft 2 kts 89°
2026-04-20 22:56 35.43424 -82.53894 2143 ft 2 kts 109°
2026-04-20 22:56 35.43430 -82.53909 2143 ft 0 kts 128°
2026-04-20 22:57 35.43436 -82.53915 2144 ft 2 kts 139°
2026-04-20 22:57 35.43444 -82.53923 2144 ft 1 kts 154°
2026-04-20 22:57 35.43451 -82.53926 2145 ft 1 kts 162°
2026-04-20 22:57 35.43453 -82.53927 2145 ft 0 kts 160°
2026-04-20 22:59 35.43452 -82.53926 2145 ft 2 kts 160°
2026-04-20 22:59 35.43402 -82.53904 2141 ft 11 kts 160°
2026-04-20 22:59 35.43333 -82.53925 2139 ft 10 kts 192°
2026-04-20 23:00 35.43239 -82.53894 2134 ft 19 kts 160°
2026-04-20 23:00 35.43074 -82.53820 2124 ft 29 kts 160°
2026-04-20 23:00 35.42866 -82.53727 2110 ft 34 kts 160°
2026-04-20 23:00 35.42668 -82.53638 2097 ft 9 kts 159°
2026-04-20 23:01 35.42617 -82.53658 2095 ft 9 kts 243°
2026-04-20 23:01 35.42605 -82.53732 2096 ft 8 kts 294°
2026-04-20 23:01 35.42642 -82.53769 2098 ft 6 kts 338°
2026-04-20 23:01 35.42828 -82.53854 2110 ft 62 kts 340°
2026-04-20 23:02 35.43451 -82.54133 2149 ft 125 kts 340°
2026-04-20 23:02 35.44401 -82.54533 2396 ft 157 kts 340°
2026-04-20 23:02 35.45488 -82.54880 3138 ft 164 kts 341°
2026-04-20 23:02 35.46555 -82.55274 3825 ft 169 kts 340°
2026-04-20 23:03 35.47754 -82.55728 4226 ft 193 kts 340°
2026-04-20 23:03 35.49090 -82.56239 4751 ft 210 kts 340°
2026-04-20 23:03 35.50526 -82.56785 5429 ft 222 kts 339°
2026-04-20 23:03 35.51926 -82.57702 5861 ft 240 kts 311°
2026-04-20 23:04 35.52602 -82.59616 6465 ft 257 kts 275°
2026-04-20 23:04 35.52166 -82.61739 7260 ft 272 kts 242°
2026-04-20 23:04 35.50732 -82.63287 8140 ft 285 kts 212°
2026-04-20 23:04 35.49015 -82.64446 8961 ft 287 kts 213°
2026-04-20 23:05 35.47189 -82.65497 9803 ft 291 kts 209°
2026-04-20 23:05 35.45303 -82.66425 10560 ft 297 kts 207°
2026-04-20 23:05 35.43350 -82.67314 11147 ft 307 kts 206°
2026-04-20 23:05 35.41291 -82.68215 11702 ft 319 kts 205°
2026-04-20 23:06 35.39177 -82.69124 12205 ft 331 kts 205°
2026-04-20 23:06 35.36953 -82.70070 12806 ft 339 kts 205°
2026-04-20 23:06 35.34714 -82.71020 13447 ft 345 kts 205°
2026-04-20 23:06 35.32428 -82.71988 14124 ft 349 kts 205°
2026-04-20 23:07 35.30117 -82.72966 14812 ft 352 kts 205°
2026-04-20 23:07 35.27769 -82.73959 15481 ft 357 kts 205°
2026-04-20 23:07 35.25423 -82.74951 16095 ft 362 kts 205°
2026-04-20 23:07 35.23024 -82.75964 16696 ft 366 kts 206°
2026-04-20 23:08 35.20614 -82.76982 17324 ft 370 kts 206°
2026-04-20 23:08 35.18163 -82.78016 17896 ft 374 kts 206°
2026-04-20 23:08 35.15683 -82.79062 18448 ft 379 kts 206°
2026-04-20 23:08 35.13180 -82.80116 19041 ft 383 kts 206°
2026-04-20 23:09 35.10648 -82.81183 19633 ft 386 kts 206°
2026-04-20 23:09 35.08111 -82.82250 20230 ft 389 kts 206°
2026-04-20 23:09 35.05555 -82.83325 20837 ft 391 kts 206°
2026-04-20 23:09 35.02985 -82.84405 21409 ft 394 kts 207°
2026-04-20 23:10 35.00362 -82.85507 21965 ft 397 kts 207°
2026-04-20 23:10 34.97752 -82.86602 22533 ft 400 kts 207°
2026-04-20 23:10 34.95118 -82.87718 23080 ft 400 kts 210°
2026-04-20 23:10 34.92827 -82.89439 23496 ft 383 kts 231°
2026-04-20 23:11 34.90871 -82.91667 24042 ft 381 kts 233°
2026-04-20 23:11 34.88965 -82.93875 24211 ft 385 kts 233°
2026-04-20 23:11 34.87001 -82.96156 24240 ft 400 kts 233°
2026-04-20 23:11 34.84959 -82.98525 24244 ft 412 kts 232°
2026-04-20 23:12 34.82863 -83.00951 24242 ft 413 kts 232°
2026-04-20 23:12 34.80774 -83.03367 24227 ft 411 kts 232°
2026-04-20 23:12 34.78691 -83.05778 24233 ft 413 kts 232°
2026-04-20 23:12 34.76625 -83.08168 24230 ft 413 kts 232°
2026-04-20 23:13 34.74526 -83.10594 24236 ft 413 kts 232°
2026-04-20 23:13 34.72454 -83.12986 24235 ft 407 kts 232°
2026-04-20 23:13 34.70409 -83.15344 24231 ft 398 kts 233°
2026-04-20 23:13 34.68424 -83.17635 24236 ft 398 kts 233°
2026-04-20 23:14 34.66417 -83.19948 24246 ft 397 kts 233°
2026-04-20 23:14 34.64409 -83.22263 24063 ft 399 kts 233°
2026-04-20 23:14 34.62392 -83.24583 23629 ft 397 kts 233°
2026-04-20 23:14 34.60392 -83.26884 23202 ft 395 kts 233°
2026-04-20 23:15 34.58416 -83.29154 22768 ft 393 kts 233°
2026-04-20 23:15 34.56444 -83.31419 22332 ft 389 kts 233°
2026-04-20 23:15 34.54494 -83.33657 21913 ft 388 kts 232°
2026-04-20 23:15 34.52538 -83.35900 21480 ft 384 kts 232°
2026-04-20 23:16 34.50612 -83.38108 21063 ft 384 kts 232°
2026-04-20 23:16 34.48682 -83.40319 20642 ft 380 kts 232°
2026-04-20 23:16 34.46753 -83.42527 20221 ft 378 kts 232°
2026-04-20 23:16 34.44856 -83.44698 19812 ft 377 kts 232°
2026-04-20 23:17 34.42958 -83.46867 19379 ft 375 kts 232°
2026-04-20 23:17 34.41057 -83.49038 18976 ft 372 kts 232°
2026-04-20 23:17 34.39185 -83.51176 18565 ft 373 kts 232°
2026-04-20 23:17 34.37306 -83.53320 18140 ft 370 kts 232°
2026-04-20 23:18 34.35445 -83.55441 17734 ft 368 kts 232°
2026-04-20 23:18 34.33572 -83.57576 17068 ft 365 kts 231°
2026-04-20 23:18 34.31746 -83.59654 16667 ft 358 kts 231°
2026-04-20 23:18 34.29938 -83.61713 16278 ft 357 kts 231°
2026-04-20 23:19 34.28109 -83.63728 15884 ft 357 kts 229°
2026-04-20 23:19 34.26241 -83.65720 15493 ft 355 kts 228°
2026-04-20 23:19 34.24405 -83.67674 15106 ft 353 kts 228°
2026-04-20 23:19 34.22578 -83.69618 14715 ft 343 kts 228°
2026-04-20 23:20 34.20824 -83.71481 14520 ft 324 kts 228°
2026-04-20 23:20 34.19167 -83.73235 14506 ft 319 kts 228°
2026-04-20 23:20 34.17501 -83.74998 14503 ft 309 kts 228°
2026-04-20 23:20 34.16085 -83.76810 14509 ft 293 kts 238°
2026-04-20 23:21 34.14697 -83.78647 14524 ft 299 kts 236°
2026-04-20 23:21 34.13767 -83.80805 14534 ft 281 kts 268°
2026-04-20 23:21 34.13938 -83.83066 14555 ft 271 kts 291°
2026-04-20 23:21 34.14401 -83.85286 14528 ft 272 kts 288°
2026-04-20 23:22 34.14848 -83.87492 14516 ft 272 kts 288°
2026-04-20 23:22 34.14862 -83.89766 14527 ft 291 kts 259°
2026-04-20 23:22 34.13891 -83.92132 14578 ft 327 kts 250°
2026-04-20 23:22 34.12961 -83.94714 14546 ft 339 kts 255°
2026-04-20 23:23 34.12188 -83.97411 14523 ft 341 kts 258°